SCP
0 0 0 0 0 0 0 0 0 0 0 0 0 0 0 0 0 0 0 0 0 0 0 1 0 0 0 0 0 0 0 0 0 0 0 0 -0 -0 0 0 0 0 0
0 0 0 0 0 0 0 0 0 0 0 0 0 0 0 0 0 0 0 0 0 0 1 1 1 1 0 0 0 0 0 0 0 0 0 0 -0 0 0 0 0 0 0
0 0 0 0 0 0 0 0 0 0 0 0 0 0 0 0 0 0 1 0 0 1 1 1 1 1 1 0 0 0 0 0 0 0 0 0 0 0 0 0 0 0 0
1 1 1 1 1 1 1 1 1 0 0 0 0 0 0 0 0 0 0 0 0 0 1 1 1 1 1 1 0 0 0 0 0 0 0 0 0 0 0 0 0 0 0
1 2 2 2 2 2 2 1 1 1 1 1 1 0 0 0 0 0 0 0 0 0 0 1 1 1 1 1 1 0 0 0 0 0 0 0 0 0 0 0 0 0 0
0 1 1 2 2 2 1 2 2 2 1 1 1 1 1 1 1 1 1 1 0 0 0 0 1 1 1 1 1 0 0 0 0 0 0 0 0 0 0 0 0 0 0
0 0 0 1 1 2 2 3 3 2 2 3 2 1 1 1 0 1 1 1 1 1 1 1 1 1 1 1 1 0 0 0 0 0 0 0 0 0 0 0 0 0 0
0 0 0 0 0 0 1 1 1 1 2 2 1 1 1 0 0 1 0 0 1 1 0 0 0 1 1 1 1 0 0 0 0 0 0 0 0 0 0 0 0 0 0
0 0 0 0 0 0 0 0 0 0 0 0 1 1 1 1 1 1 1 0 1 0 0 0 0 0 0 1 1 1 0 0 0 0 0 0 0 0 0 0 0 0 0
0 0 0 0 0 0 0 0 0 0 0 0 0 1 0 1 1 0 1 0 0 0 0 0 0 0 0 0 1 1 0 0 0 0 0 0 0 0 0 0 0 0 0
0 0 0 0 0 0 0 0 0 0 0 0 0 1 1 1 1 1 1 0 1 0 0 0 0 0 0 0 0 0 0 0 0 0 0 0 0 0 0 0 0 0 0
0 0 0 0 0 0 0 0 0 0 0 0 0 0 0 0 0 0 0 0 0 0 0 0 0 0 0 0 1 0 0 0 0 0 0 0 0 0 0 0 0 0 0
0 0 0 0 0 0 0 0 0 0 0 0 0 0 -0 -0 0 -0 0 0 0 0 -0 0 0 1 1 1 1 0 0 0 0 0 0 0 0 0 0 0 0 0 0
0 0 0 0 0 0 0 0 0 0 0 0 0 0 0 0 0 0 -0 0 0 0 0 0 1 1 0 1 1 0 0 0 0 0 0 0 0 0 0 0 0 0 0
0 0 0 0 0 0 0 0 0 0 0 0 0 0 0 0 0 0 0 -0 0 0 0 1 1 0 0 0 1 0 1 0 0 0 0 0 0 0 0 0 0 0 0
0 0 0 0 0 0 0 0 0 0 0 0 0 0 0 0 0 0 0 0 0 0 0 0 0 0 0 0 0 0 1 0 0 0 0 0 0 0 0 0 0 0 0
0 0 0 0 0 0 0 0 0 0 0 0 0 0 0 0 0 0 0 0 0 0 0 0 0 0 0 0 0 0 0 0 1 0 0 0 0 0 0 0 0 0 0
0 0 0 0 0 0 0 0 0 0 0 0 0 0 0 0 0 0 0 0 0 0 0 0 0 0 0 0 0 0 0 0 0 0 0 0 0 0 0 0 0 0 0
0 0 0 0 0 0 0 0 0 0 0 0 0 0 0 0 0 0 0 0 0 0 0 0 0 0 0 0 0 0 0 0 0 0 0 0 0 0 0 0 0 0 0
0 0 0 0 0 0 0 0 0 0 0 0 0 0 0 0 0 0 0 0 0 0 0 0 0 0 0 0 0 0 0 0 0 0 0 0 0 0 0 0 0 0 0
0 0 0 0 0 0 0 0 0 0 0 0 0 0 0 0 0 0 0 0 0 0 0 0 0 0 0 0 0 0 0 0 0 0 0 0 0 0 0 0 0 0 0
0 0 0 0 0 0 0 0 0 0 0 0 0 0 0 0 0 0 0 0 0 0 0 0 0 0 0 0 0 0 0 0 0 0 0 0 0 0 0 0 0 0 0
0 0 0 0 0 0 0 0 0 0 0 0 0 0 0 0 0 0 0 0 0 -0 0 0 0 0 0 0 0 0 0 0 0 0 0 0 0 0 0 0 0 0 0
0 0 0 0 0 0 0 0 0 0 0 0 0 0 0 0 0 0 0 0 0 0 0 0 0 0 0 0 0 0 0 0 0 0 0 0 0 0 0 0 0 0 0
0 0 0 0 0 0 0 0 0 0 0 0 0 0 0 0 0 0 0 0 0 0 0 0 0 0 0 0 0 0 0 0 0 0 0 0 0 0 0 0 0 0 0
0 0 0 0 0 0 0 0 0 0 0 0 0 0 0 0 0 0 0 0 0 0 0 0 0 0 0 0 0 0 0 0 0 0 0 0 0 0 0 0 0 0 0
Wind_Speed_500mb
19 18 21 21 22 21 20 20 20 22 22 23 25 26 27 30 31 30 30 38 33 33 32 30 29 23 22 25 23 22 23 23 24 24 25 25 23 22 29 27 22 20 18
23 21 21 22 23 25 25 26 27 29 29 30 31 31 32 32 31 31 33 33 43 37 36 37 37 32 25 26 27 23 20 23 26 25 26 26 23 24 26 26 22 20 19
29 32 28 27 26 27 30 32 36 37 38 38 41 41 40 39 38 35 34 35 36 41 43 40 41 40 34 29 30 28 24 23 27 27 27 27 27 26 26 24 22 20 19
31 35 30 28 27 30 33 34 37 39 41 40 43 43 42 43 42 42 39 36 35 35 37 34 35 43 43 39 33 32 28 25 27 32 31 31 32 30 27 24 22 20 19
20 29 25 29 32 34 35 37 39 42 44 44 47 47 44 43 41 40 41 38 35 36 34 37 42 43 48 49 43 37 33 29 27 31 37 36 37 34 29 25 23 20 19
35 37 37 34 36 34 37 38 40 38 43 44 47 51 48 45 42 42 42 39 36 37 35 33 34 40 41 53 53 48 40 36 30 28 35 41 40 36 31 27 24 20 18
34 35 35 35 35 32 34 35 37 36 37 38 40 42 45 41 44 41 40 39 33 32 32 32 32 35 39 46 49 57 50 43 37 31 31 37 39 36 33 30 27 21 18
21 24 28 30 33 33 30 32 34 39 38 30 34 37 44 38 36 32 27 34 28 21 28 29 29 31 38 37 41 47 57 50 47 39 32 34 38 38 36 33 31 24 19
24 25 26 28 30 32 34 36 37 35 37 36 28 29 25 41 36 29 27 20 18 16 17 20 20 23 33 36 38 42 50 52 54 49 40 37 39 41 40 38 35 30 24
24 25 25 23 25 28 29 28 28 29 35 41 37 32 42 44 31 31 30 19 19 18 24 28 27 26 27 31 35 39 48 53 49 56 50 42 41 44 43 41 38 36 30
22 22 23 23 23 23 24 24 24 24 24 26 25 28 29 27 28 29 31 25 28 27 30 33 33 30 31 30 28 36 38 47 52 57 61 52 46 45 47 45 43 40 37
20 24 23 23 24 23 24 26 27 26 25 27 28 28 26 20 24 26 35 39 45 50 33 40 40 31 29 27 28 28 31 34 40 49 59 65 56 51 51 52 50 48 46
21 28 29 28 25 25 24 22 24 26 26 21 21 19 22 21 19 24 32 41 41 40 31 32 33 23 21 25 28 33 37 33 30 33 45 67 68 64 59 56 55 53 52
20 28 30 33 34 32 27 24 21 23 23 24 25 21 16 17 19 22 27 32 42 37 37 29 28 19 19 22 25 23 31 30 32 29 27 41 62 76 73 66 64 59 57
16 20 24 27 32 36 40 34 24 24 25 28 27 25 23 29 31 30 28 27 29 24 36 11 17 17 21 18 18 21 24 28 26 28 32 29 34 43 76 78 75 65 62
20 19 21 24 28 31 34 36 30 24 25 23 23 28 29 26 24 23 27 28 24 22 20 30 19 24 28 28 27 25 25 23 31 32 33 33 37 45 57 67 65 57 60
23 21 22 24 28 31 35 36 35 29 27 25 25 25 25 27 26 27 30 27 31 28 28 28 26 24 31 31 31 32 34 35 32 31 31 40 45 43 57 71 74 68 59
28 25 24 24 29 32 36 38 36 33 30 28 27 26 25 26 28 25 26 28 29 29 34 38 38 35 31 28 27 25 24 29 33 36 32 34 43 45 57 66 75 75 59
32 29 27 27 32 34 38 40 35 37 33 31 29 29 26 27 27 28 28 27 28 28 31 35 38 30 26 26 18 21 22 24 21 32 30 30 34 48 55 57 57 50 61
27 25 26 31 34 37 40 34 43 38 34 31 31 28 26 25 25 28 28 26 26 28 29 31 32 30 25 22 23 27 28 28 30 28 33 36 34 32 44 60 58 50 53
16 25 30 36 38 41 40 48 46 36 31 30 29 28 28 28 35 29 26 26 25 25 26 28 29 29 25 29 24 28 32 35 36 33 34 28 29 31 28 30 37 47 55
43 29 32 41 41 38 46 42 41 36 29 29 28 28 29 26 16 28 29 26 25 26 23 24 24 25 22 24 27 31 34 36 40 26 29 35 31 32 31 29 27 41 37
43 46 40 38 36 31 38 37 36 30 30 30 31 30 29 30 30 30 33 26 27 27 26 27 25 25 27 28 33 36 36 38 41 41 38 44 33 34 31 30 33 32 43
34 32 31 30 27 27 34 34 34 29 30 32 34 33 34 31 38 39 39 37 33 33 29 25 25 27 28 35 44 40 42 43 42 36 32 41 33 33 32 31 38 30 30
30 29 28 24 23 24 39 41 38 33 32 33 32 33 31 33 37 43 47 41 41 41 39 42 44 41 40 45 45 42 38 38 40 35 31 36 35 32 30 34 30 28 22
30 27 28 29 32 27 33 37 43 31 32 28 29 26 32 28 41 47 49 41 44 45 44 44 43 44 39 43 41 40 33 37 38 38 21 23 26 28 28 19 11 16 19
Wind_Direction_500mb
279 287 277 275 265 261 261 259 256 254 254 262 264 265 265 267 272 276 277 282 285 294 292 282 281 293 292 293 299 299 286 266 247 238 237 233 238 248 270 277 277 272 263
275 280 286 284 273 265 261 258 259 258 256 257 262 266 270 271 271 272 273 277 287 289 286 288 274 276 286 284 284 292 288 269 251 242 240 240 244 253 265 268 269 266 258
285 287 283 281 274 267 265 266 265 265 265 267 266 264 267 267 269 270 271 272 274 285 288 279 268 265 269 278 279 285 287 269 251 244 239 239 245 260 262 259 261 262 257
289 284 284 277 275 269 268 266 265 264 265 266 269 269 267 266 267 268 268 266 270 271 282 285 274 263 263 266 273 279 282 278 255 242 238 238 246 257 254 252 254 257 253
282 271 282 280 279 274 272 267 265 263 266 264 268 271 273 273 271 273 271 266 270 273 268 276 281 266 258 259 262 267 273 275 268 250 240 239 241 250 244 242 245 250 247
282 283 277 275 272 273 274 271 265 265 269 273 271 269 269 269 272 275 275 272 271 270 269 267 267 281 271 258 254 258 262 267 266 259 246 238 240 239 236 233 235 242 240
290 285 280 278 273 269 261 261 267 270 274 280 275 278 276 276 279 270 271 272 265 266 274 271 265 263 264 276 268 251 253 259 264 260 254 245 238 230 227 226 228 232 236
313 309 294 286 280 272 268 264 266 265 269 283 280 284 281 278 288 269 276 262 261 266 278 277 270 268 262 256 269 266 250 252 256 258 254 246 237 228 223 223 224 224 229
335 331 327 316 314 306 295 288 284 278 278 257 268 277 283 273 293 288 260 269 263 265 277 296 301 280 266 261 249 257 261 257 251 252 253 247 239 232 223 220 221 222 222
353 353 351 345 341 336 327 329 336 319 304 295 288 279 263 266 279 278 270 264 277 284 292 297 288 285 276 264 260 253 250 257 255 250 248 247 240 235 229 223 220 224 223
2 4 7 8 4 4 358 352 341 331 310 292 300 291 286 281 276 264 272 278 285 294 296 293 289 279 270 270 270 269 268 263 264 257 246 243 241 238 234 230 226 226 228
15 11 11 10 4 6 356 355 357 356 346 317 298 306 288 295 282 294 291 291 289 291 289 284 285 286 267 268 264 265 270 277 264 260 247 239 238 237 236 232 231 230 232
23 22 25 20 13 3 358 352 346 349 359 3 1 342 347 337 315 303 296 295 287 297 294 286 278 268 277 267 261 268 272 271 270 256 250 240 239 238 235 233 235 236 237
29 30 28 25 22 17 4 349 348 350 344 328 321 326 348 344 354 339 337 344 311 295 299 294 270 292 319 301 286 266 269 272 264 259 248 247 249 244 241 235 236 234 238
19 11 12 11 11 12 14 12 340 340 335 332 334 335 334 313 304 312 328 330 322 338 331 312 336 334 333 312 281 290 284 284 281 279 270 270 268 260 245 240 244 242 242
358 355 355 356 359 358 358 2 352 334 334 326 322 323 327 319 317 317 309 311 312 306 298 317 318 311 323 329 324 307 288 282 284 276 273 275 275 264 258 243 234 237 240
328 331 335 342 345 347 346 346 341 334 328 323 320 319 323 322 314 316 309 301 301 298 299 298 302 320 312 318 319 315 308 294 286 278 270 266 261 270 267 254 245 239 242
306 307 312 321 329 333 336 337 335 329 325 320 315 311 316 320 326 322 310 307 296 289 293 295 296 307 304 300 294 288 290 301 299 295 288 269 258 261 262 257 256 253 247
297 295 298 307 318 322 326 328 328 325 321 315 311 303 305 315 322 321 325 317 306 298 290 293 295 292 298 309 305 310 320 325 324 318 300 285 274 261 255 256 257 261 261
297 294 302 306 312 315 321 314 325 325 319 312 306 300 299 302 311 323 330 326 314 303 299 291 296 294 294 296 298 295 299 296 301 301 301 313 306 292 267 252 249 246 267
291 304 317 308 310 312 307 305 318 324 321 313 306 303 300 294 306 309 321 322 323 309 300 297 294 297 303 315 319 311 301 299 300 302 283 288 305 310 303 264 241 240 266
285 301 309 308 308 307 300 305 313 322 316 318 320 309 299 310 304 319 310 311 316 316 314 307 301 315 317 316 310 310 309 310 309 293 300 291 295 295 301 293 271 256 248
294 298 297 303 298 300 291 304 307 314 310 314 316 318 319 308 311 303 296 305 308 308 307 300 303 305 309 310 305 312 308 304 298 293 298 290 293 282 285 294 294 276 262
315 314 306 306 304 305 302 306 303 307 309 304 307 309 311 312 306 302 299 304 303 298 293 289 290 294 299 296 301 300 304 304 306 303 294 292 289 279 279 285 294 283 288
315 312 310 306 312 317 309 305 305 319 311 305 305 305 298 307 299 306 305 301 293 291 293 288 285 283 287 295 297 297 298 300 297 294 293 288 289 288 275 275 277 280 285
310 308 309 316 309 309 303 315 322 319 305 309 311 315 307 306 314 321 319 308 293 290 285 283 281 285 291 292 295 300 293 287 288 290 293 298 294 304 303 253 245 279 267
Wind_Speed_850mb
19 18 21 21 22 21 20 20 20 22 22 23 25 26 27 30 31 30 30 38 33 33 32 30 29 23 22 25 23 22 23 23 24 24 25 25 23 22 29 27 22 20 18
23 21 21 22 23 25 25 26 27 29 29 30 31 31 32 32 31 31 33 33 43 37 36 37 37 32 25 26 27 23 20 23 26 25 26 26 23 24 26 26 22 20 19
29 32 28 27 26 27 30 32 36 37 38 38 41 41 40 39 38 35 34 35 36 41 43 40 41 40 34 29 30 28 24 23 27 27 27 27 27 26 26 24 22 20 19
31 35 30 28 27 30 33 34 37 39 41 40 43 43 42 43 42 42 39 36 35 35 37 34 35 43 43 39 33 32 28 25 27 32 31 31 32 30 27 24 22 20 19
20 29 25 29 32 34 35 37 39 42 44 44 47 47 44 43 41 40 41 38 35 36 34 37 42 43 48 49 43 37 33 29 27 31 37 36 37 34 29 25 23 20 19
35 37 37 34 36 34 37 38 40 38 43 44 47 51 48 45 42 42 42 39 36 37 35 33 34 40 41 53 53 48 40 36 30 28 35 41 40 36 31 27 24 20 18
34 35 35 35 35 32 34 35 37 36 37 38 40 42 45 41 44 41 40 39 33 32 32 32 32 35 39 46 49 57 50 43 37 31 31 37 39 36 33 30 27 21 18
21 24 28 30 33 33 30 32 34 39 38 30 34 37 44 38 36 32 27 34 28 21 28 29 29 31 38 37 41 47 57 50 47 39 32 34 38 38 36 33 31 24 19
24 25 26 28 30 32 34 36 37 35 37 36 28 29 25 41 36 29 27 20 18 16 17 20 20 23 33 36 38 42 50 52 54 49 40 37 39 41 40 38 35 30 24
24 25 25 23 25 28 29 28 28 29 35 41 37 32 42 44 31 31 30 19 19 18 24 28 27 26 27 31 35 39 48 53 49 56 50 42 41 44 43 41 38 36 30
22 22 23 23 23 23 24 24 24 24 24 26 25 28 29 27 28 29 31 25 28 27 30 33 33 30 31 30 28 36 38 47 52 57 61 52 46 45 47 45 43 40 37
20 24 23 23 24 23 24 26 27 26 25 27 28 28 26 20 24 26 35 39 45 50 33 40 40 31 29 27 28 28 31 34 40 49 59 65 56 51 51 52 50 48 46
21 28 29 28 25 25 24 22 24 26 26 21 21 19 22 21 19 24 32 41 41 40 31 32 33 23 21 25 28 33 37 33 30 33 45 67 68 64 59 56 55 53 52
20 28 30 33 34 32 27 24 21 23 23 24 25 21 16 17 19 22 27 32 42 37 37 29 28 19 19 22 25 23 31 30 32 29 27 41 62 76 73 66 64 59 57
16 20 24 27 32 36 40 34 24 24 25 28 27 25 23 29 31 30 28 27 29 24 36 11 17 17 21 18 18 21 24 28 26 28 32 29 34 43 76 78 75 65 62
20 19 21 24 28 31 34 36 30 24 25 23 23 28 29 26 24 23 27 28 24 22 20 30 19 24 28 28 27 25 25 23 31 32 33 33 37 45 57 67 65 57 60
23 21 22 24 28 31 35 36 35 29 27 25 25 25 25 27 26 27 30 27 31 28 28 28 26 24 31 31 31 32 34 35 32 31 31 40 45 43 57 71 74 68 59
28 25 24 24 29 32 36 38 36 33 30 28 27 26 25 26 28 25 26 28 29 29 34 38 38 35 31 28 27 25 24 29 33 36 32 34 43 45 57 66 75 75 59
32 29 27 27 32 34 38 40 35 37 33 31 29 29 26 27 27 28 28 27 28 28 31 35 38 30 26 26 18 21 22 24 21 32 30 30 34 48 55 57 57 50 61
27 25 26 31 34 37 40 34 43 38 34 31 31 28 26 25 25 28 28 26 26 28 29 31 32 30 25 22 23 27 28 28 30 28 33 36 34 32 44 60 58 50 53
16 25 30 36 38 41 40 48 46 36 31 30 29 28 28 28 35 29 26 26 25 25 26 28 29 29 25 29 24 28 32 35 36 33 34 28 29 31 28 30 37 47 55
43 29 32 41 41 38 46 42 41 36 29 29 28 28 29 26 16 28 29 26 25 26 23 24 24 25 22 24 27 31 34 36 40 26 29 35 31 32 31 29 27 41 37
43 46 40 38 36 31 38 37 36 30 30 30 31 30 29 30 30 30 33 26 27 27 26 27 25 25 27 28 33 36 36 38 41 41 38 44 33 34 31 30 33 32 43
34 32 31 30 27 27 34 34 34 29 30 32 34 33 34 31 38 39 39 37 33 33 29 25 25 27 28 35 44 40 42 43 42 36 32 41 33 33 32 31 38 30 30
30 29 28 24 23 24 39 41 38 33 32 33 32 33 31 33 37 43 47 41 41 41 39 42 44 41 40 45 45 42 38 38 40 35 31 36 35 32 30 34 30 28 22
30 27 28 29 32 27 33 37 43 31 32 28 29 26 32 28 41 47 49 41 44 45 44 44 43 44 39 43 41 40 33 37 38 38 21 23 26 28 28 19 11 16 19
Wind_Direction_850mb
279 287 277 275 265 261 261 259 256 254 254 262 264 265 265 267 272 276 277 282 285 294 292 282 281 293 292 293 299 299 286 266 247 238 237 233 238 248 270 277 277 272 263
275 280 286 284 273 265 261 258 259 258 256 257 262 266 270 271 271 272 273 277 287 289 286 288 274 276 286 284 284 292 288 269 251 242 240 240 244 253 265 268 269 266 258
285 287 283 281 274 267 265 266 265 265 265 267 266 264 267 267 269 270 271 272 274 285 288 279 268 265 269 278 279 285 287 269 251 244 239 239 245 260 262 259 261 262 257
289 284 284 277 275 269 268 266 265 264 265 266 269 269 267 266 267 268 268 266 270 271 282 285 274 263 263 266 273 279 282 278 255 242 238 238 246 257 254 252 254 257 253
282 271 282 280 279 274 272 267 265 263 266 264 268 271 273 273 271 273 271 266 270 273 268 276 281 266 258 259 262 267 273 275 268 250 240 239 241 250 244 242 245 250 247
282 283 277 275 272 273 274 271 265 265 269 273 271 269 269 269 272 275 275 272 271 270 269 267 267 281 271 258 254 258 262 267 266 259 246 238 240 239 236 233 235 242 240
290 285 280 278 273 269 261 261 267 270 274 280 275 278 276 276 279 270 271 272 265 266 274 271 265 263 264 276 268 251 253 259 264 260 254 245 238 230 227 226 228 232 236
313 309 294 286 280 272 268 264 266 265 269 283 280 284 281 278 288 269 276 262 261 266 278 277 270 268 262 256 269 266 250 252 256 258 254 246 237 228 223 223 224 224 229
335 331 327 316 314 306 295 288 284 278 278 257 268 277 283 273 293 288 260 269 263 265 277 296 301 280 266 261 249 257 261 257 251 252 253 247 239 232 223 220 221 222 222
353 353 351 345 341 336 327 329 336 319 304 295 288 279 263 266 279 278 270 264 277 284 292 297 288 285 276 264 260 253 250 257 255 250 248 247 240 235 229 223 220 224 223
2 4 7 8 4 4 358 352 341 331 310 292 300 291 286 281 276 264 272 278 285 294 296 293 289 279 270 270 270 269 268 263 264 257 246 243 241 238 234 230 226 226 228
15 11 11 10 4 6 356 355 357 356 346 317 298 306 288 295 282 294 291 291 289 291 289 284 285 286 267 268 264 265 270 277 264 260 247 239 238 237 236 232 231 230 232
23 22 25 20 13 3 358 352 346 349 359 3 1 342 347 337 315 303 296 295 287 297 294 286 278 268 277 267 261 268 272 271 270 256 250 240 239 238 235 233 235 236 237
29 30 28 25 22 17 4 349 348 350 344 328 321 326 348 344 354 339 337 344 311 295 299 294 270 292 319 301 286 266 269 272 264 259 248 247 249 244 241 235 236 234 238
19 11 12 11 11 12 14 12 340 340 335 332 334 335 334 313 304 312 328 330 322 338 331 312 336 334 333 312 281 290 284 284 281 279 270 270 268 260 245 240 244 242 242
358 355 355 356 359 358 358 2 352 334 334 326 322 323 327 319 317 317 309 311 312 306 298 317 318 311 323 329 324 307 288 282 284 276 273 275 275 264 258 243 234 237 240
328 331 335 342 345 347 346 346 341 334 328 323 320 319 323 322 314 316 309 301 301 298 299 298 302 320 312 318 319 315 308 294 286 278 270 266 261 270 267 254 245 239 242
306 307 312 321 329 333 336 337 335 329 325 320 315 311 316 320 326 322 310 307 296 289 293 295 296 307 304 300 294 288 290 301 299 295 288 269 258 261 262 257 256 253 247
297 295 298 307 318 322 326 328 328 325 321 315 311 303 305 315 322 321 325 317 306 298 290 293 295 292 298 309 305 310 320 325 324 318 300 285 274 261 255 256 257 261 261
297 294 302 306 312 315 321 314 325 325 319 312 306 300 299 302 311 323 330 326 314 303 299 291 296 294 294 296 298 295 299 296 301 301 301 313 306 292 267 252 249 246 267
291 304 317 308 310 312 307 305 318 324 321 313 306 303 300 294 306 309 321 322 323 309 300 297 294 297 303 315 319 311 301 299 300 302 283 288 305 310 303 264 241 240 266
285 301 309 308 308 307 300 305 313 322 316 318 320 309 299 310 304 319 310 311 316 316 314 307 301 315 317 316 310 310 309 310 309 293 300 291 295 295 301 293 271 256 248
294 298 297 303 298 300 291 304 307 314 310 314 316 318 319 308 311 303 296 305 308 308 307 300 303 305 309 310 305 312 308 304 298 293 298 290 293 282 285 294 294 276 262
315 314 306 306 304 305 302 306 303 307 309 304 307 309 311 312 306 302 299 304 303 298 293 289 290 294 299 296 301 300 304 304 306 303 294 292 289 279 279 285 294 283 288
315 312 310 306 312 317 309 305 305 319 311 305 305 305 298 307 299 306 305 301 293 291 293 288 285 283 287 295 297 297 298 300 297 294 293 288 289 288 275 275 277 280 285
310 308 309 316 309 309 303 315 322 319 305 309 311 315 307 306 314 321 319 308 293 290 285 283 281 285 291 292 295 300 293 287 288 290 293 298 294 304 303 253 245 279 267